Temperature
-2 -2 -2 -2 -2 -2 -3 -3 -3 -3 -4 -4 -5 -6 -5 -5 -5 -6 -6 -6 -6 -6 -6 -6 -5 -5 -5 -5 -4 -4 -4 -3 -3 -3 -2 -2 -2 -1 -1 -1 -0 -0 0 0
-3 -2 -3 -3 -3 -3 -3 -3 -4 -4 -5 -6 -5 -5 -6 -6 -6 -6 -6 -6 -7 -6 -6 -6 -6 -6 -6 -5 -5 -5 -4 -4 -4 -4 -3 -3 -2 -2 -2 -1 -1 -1 -1 -0
-4 -4 -3 -4 -4 -4 -4 -5 -5 -5 -5 -6 -6 -6 -6 -6 -6 -6 -7 -7 -7 -7 -7 -7 -7 -7 -6 -6 -6 -5 -5 -5 -4 -4 -4 -4 -3 -3 -2 -2 -2 -1 -1 -1
-4 -4 -4 -4 -5 -5 -5 -6 -6 -6 -7 -7 -6 -6 -6 -6 -6 -7 -7 -7 -7 -7 -7 -7 -7 -7 -7 -6 -6 -6 -6 -5 -5 -5 -5 -4 -4 -3 -3 -3 -2 -2 -2 -2
-5 -5 -5 -5 -5 -6 -6 -6 -7 -7 -7 -7 -7 -7 -6 -6 -7 -7 -7 -8 -8 -8 -8 -8 -8 -7 -7 -7 -7 -6 -6 -6 -6 -5 -5 -5 -5 -4 -4 -3 -3 -3 -2 -2
-6 -5 -4 -5 -5 -5 -6 -7 -7 -7 -7 -7 -8 -8 -7 -7 -7 -7 -8 -8 -8 -8 -8 -8 -8 -8 -8 -8 -7 -7 -7 -7 -6 -6 -6 -5 -5 -5 -4 -4 -4 -3 -3 -3
-6 -6 -6 -6 -6 -6 -6 -6 -6 -6 -7 -7 -8 -8 -7 -7 -8 -8 -8 -8 -8 -8 -8 -8 -8 -9 -9 -8 -8 -8 -8 -7 -7 -6 -6 -6 -6 -5 -5 -5 -4 -4 -4 -3
-7 -7 -6 -6 -7 -7 -7 -6 -6 -6 -7 -7 -7 -7 -8 -8 -8 -8 -8 -8 -9 -9 -9 -9 -9 -9 -9 -9 -9 -8 -8 -8 -7 -7 -6 -6 -6 -6 -6 -6 -5 -5 -4 -4
-7 -6 -6 -6 -6 -5 -6 -6 -6 -7 -7 -7 -8 -8 -8 -8 -9 -9 -9 -9 -9 -9 -9 -9 -9 -9 -9 -9 -9 -9 -9 -8 -8 -7 -7 -7 -7 -7 -6 -6 -6 -6 -5 -5
-8 -8 -7 -6 -6 -6 -6 -6 -7 -7 -7 -8 -8 -8 -9 -9 -9 -9 -9 -9 -10 -10 -10 -9 -9 -9 -10 -10 -9 -9 -9 -9 -8 -8 -7 -7 -7 -7 -7 -7 -7 -6 -6 -5
-9 -9 -7 -6 -6 -6 -6 -7 -7 -7 -8 -8 -8 -9 -9 -9 -9 -9 -10 -10 -10 -10 -10 -10 -10 -10 -10 -10 -10 -9 -9 -9 -9 -8 -8 -8 -8 -8 -8 -7 -7 -7 -7 -6
-8 -7 -7 -6 -6 -6 -7 -7 -7 -8 -8 -8 -9 -9 -9 -9 -10 -10 -10 -10 -10 -10 -10 -10 -10 -10 -10 -10 -10 -10 -10 -9 -9 -9 -9 -9 -8 -8 -8 -8 -7 -7 -7 -7
-6 -6 -6 -6 -6 -7 -7 -8 -8 -8 -9 -9 -9 -9 -10 -10 -10 -10 -10 -11 -11 -11 -11 -11 -10 -10 -10 -10 -10 -10 -10 -10 -10 -10 -9 -9 -9 -9 -8 -8 -8 -7 -7 -7
-6 -7 -7 -7 -7 -7 -8 -8 -8 -9 -9 -9 -10 -10 -10 -10 -10 -11 -11 -11 -11 -11 -11 -11 -11 -11 -11 -11 -10 -10 -10 -10 -10 -10 -10 -10 -10 -9 -9 -9 -8 -8 -7 -7
-7 -7 -7 -7 -8 -8 -8 -9 -9 -9 -9 -9 -10 -10 -10 -11 -11 -11 -11 -11 -11 -11 -11 -11 -11 -11 -11 -11 -11 -11 -10 -10 -10 -10 -10 -10 -10 -10 -10 -9 -9 -8 -8 -7
-7 -7 -8 -8 -8 -8 -9 -9 -9 -9 -10 -10 -10 -10 -11 -11 -11 -11 -11 -11 -12 -11 -11 -11 -11 -11 -11 -11 -11 -11 -11 -11 -11 -10 -10 -10 -10 -10 -10 -10 -9 -9 -9 -8
-8 -8 -8 -8 -9 -9 -9 -9 -10 -10 -10 -10 -11 -11 -11 -11 -11 -11 -11 -12 -12 -12 -12 -12 -12 -12 -12 -12 -12 -12 -11 -11 -11 -11 -11 -11 -11 -11 -11 -10 -10 -10 -9 -9
-8 -8 -8 -9 -9 -9 -9 -10 -10 -10 -11 -11 -11 -11 -11 -11 -12 -12 -12 -12 -12 -12 -12 -12 -12 -12 -12 -12 -12 -12 -12 -11 -11 -11 -11 -11 -11 -11 -11 -11 -10 -10 -10 -9
-8 -8 -9 -9 -9 -10 -10 -10 -10 -11 -11 -11 -11 -11 -12 -12 -12 -12 -12 -12 -12 -12 -12 -12 -12 -12 -12 -12 -12 -12 -12 -12 -12 -12 -12 -11 -11 -11 -11 -11 -11 -10 -10 -10
-8 -9 -9 -9 -10 -10 -10 -10 -11 -11 -11 -12 -12 -12 -12 -12 -12 -12 -12 -13 -13 -13 -13 -13 -13 -13 -13 -12 -13 -13 -13 -12 -12 -12 -12 -12 -12 -12 -11 -11 -11 -11 -11 -10
-9 -9 -9 -10 -10 -10 -11 -11 -11 -11 -12 -12 -12 -12 -12 -12 -13 -13 -13 -13 -13 -13 -13 -13 -13 -13 -13 -13 -13 -13 -13 -13 -13 -13 -12 -12 -12 -12 -12 -12 -12 -11 -11 -11
-9 -10 -10 -10 -10 -11 -11 -11 -12 -12 -12 -12 -12 -13 -13 -13 -13 -13 -13 -13 -13 -13 -13 -13 -13 -13 -13 -13 -13 -13 -13 -13 -13 -13 -13 -13 -13 -12 -12 -12 -12 -12 -12 -11
-10 -10 -10 -11 -11 -11 -12 -12 -12 -12 -12 -13 -13 -13 -13 -13 -14 -14 -14 -13 -14 -14 -14 -14 -14 -14 -14 -14 -13 -13 -13 -13 -13 -13 -13 -13 -13 -13 -13 -13 -12 -12 -12 -12
-10 -11 -11 -11 -12 -12 -12 -12 -13 -13 -13 -13 -13 -14 -14 -14 -14 -14 -14 -14 -14 -14 -14 -14 -14 -14 -14 -14 -14 -14 -14 -14 -14 -14 -14 -14 -13 -13 -13 -13 -13 -12 -12 -12
-11 -11 -12 -12 -12 -12 -13 -13 -13 -13 -13 -13 -14 -14 -14 -14 -14 -14 -14 -14 -14 -14 -14 -14 -14 -14 -14 -14 -14 -14 -14 -14 -14 -14 -14 -14 -14 -13 -13 -13 -13 -13 -13 -12
-11 -12 -12 -12 -13 -13 -13 -13 -14 -14 -14 -14 -14 -14 -14 -14 -14 -14 -14 -14 -15 -15 -15 -14 -14 -15 -15 -14 -14 -14 -14 -14 -14 -14 -14 -14 -14 -14 -14 -13 -13 -13 -13 -13
-12 -12 -13 -13 -13 -14 -14 -14 -14 -14 -14 -14 -14 -14 -15 -15 -15 -15 -15 -15 -15 -15 -15 -15 -15 -15 -15 -15 -15 -15 -14 -14 -14 -14 -14 -14 -14 -14 -14 -14 -14 -13 -13 -13
Wind_Speed
5 5 3 5 6 4 6 7 7 7 7 8 6 5 6 5 6 7 8 9 9 10 9 10 10 10 10 11 10 10 10 10 10 9 8 8 8 8 7 6 6 5 5 5
4 3 3 6 7 6 6 6 7 8 8 5 4 3 4 5 7 7 8 9 10 10 11 11 11 11 12 12 11 10 9 10 10 9 9 8 8 8 7 6 6 5 4 4
4 4 5 7 5 5 4 4 4 7 6 4 5 5 5 6 6 7 8 9 10 10 10 11 11 10 11 11 11 10 9 9 9 9 9 9 8 8 7 7 6 6 5 4
2 4 5 5 0 2 3 4 4 4 4 4 5 6 6 5 4 6 8 10 10 10 10 10 10 10 10 10 10 10 10 10 9 9 9 9 8 7 7 7 6 5 5 5
1 3 7 5 2 2 2 5 3 4 4 4 4 5 4 3 3 5 7 8 8 8 9 10 10 10 11 11 10 10 11 11 10 9 9 9 8 8 7 6 6 6 5 5
3 3 6 5 1 1 2 5 3 3 4 3 3 4 5 5 6 8 8 8 8 9 9 9 10 10 10 11 11 11 12 12 10 9 9 8 8 8 7 6 6 6 6 5
4 5 8 5 2 2 2 5 2 2 3 2 3 5 6 8 8 8 8 9 9 9 9 9 10 9 10 11 11 12 12 11 10 9 9 8 7 7 7 6 6 6 6 5
4 5 8 2 4 4 6 2 1 2 3 4 6 6 7 8 9 9 9 9 9 9 10 9 9 9 10 11 12 12 11 11 10 9 8 8 7 7 6 5 5 6 5 5
7 7 3 3 5 3 2 2 3 3 4 4 6 7 8 8 8 9 9 9 9 9 10 10 9 9 10 12 12 12 11 11 10 10 8 8 7 7 6 5 4 5 5 5
4 6 5 4 4 3 3 4 4 4 4 4 6 7 8 8 9 9 9 9 8 9 10 11 10 10 10 12 12 11 11 11 10 9 8 7 6 6 5 5 4 5 5 5
5 5 4 4 5 4 3 3 4 4 4 5 6 7 7 8 8 8 9 9 8 9 10 11 11 11 12 12 11 11 11 10 9 8 8 7 6 5 6 5 6 5 5 5
6 5 5 5 4 3 3 4 4 4 5 4 5 7 7 7 7 8 9 9 9 10 11 11 11 12 12 11 11 10 10 10 7 7 6 6 6 6 8 8 10 10 9 7
4 2 4 4 3 2 3 4 4 4 5 6 5 5 6 6 7 7 8 9 10 10 11 11 11 12 12 11 11 10 10 10 7 7 6 6 6 6 6 8 10 10 9 9
3 1 2 3 3 3 3 3 3 3 4 4 5 5 5 6 7 8 9 9 10 10 10 10 11 12 12 11 11 10 10 10 8 6 6 6 6 6 5 6 6 6 8 9
3 3 4 3 3 2 2 2 3 4 4 4 4 5 5 7 8 8 9 9 9 9 10 10 11 12 11 11 11 11 9 7 7 6 5 5 5 5 5 5 5 5 6 6
2 2 2 3 4 3 3 2 4 5 5 5 5 6 6 7 8 8 8 8 8 10 10 10 11 11 11 11 11 9 8 12 10 6 5 5 5 5 5 5 5 5 5 5
2 2 2 3 4 4 4 4 4 5 5 6 6 6 6 7 7 8 8 8 8 9 10 10 11 11 10 10 9 8 8 9 11 7 5 5 5 5 5 5 5 5 5 6
4 4 3 4 4 4 5 4 4 5 5 6 6 5 6 7 8 9 9 9 9 9 9 9 10 10 10 10 8 7 7 6 6 6 5 5 5 5 5 5 5 5 5 6
2 2 2 3 3 3 4 5 5 5 5 5 5 6 6 7 8 8 8 8 9 10 9 10 15 12 10 11 11 7 7 7 6 6 6 7 7 5 5 4 5 5 5 5
1 1 2 2 2 2 4 5 5 5 5 5 5 6 7 7 7 8 8 8 7 7 10 11 11 9 9 10 11 6 6 6 6 6 6 5 5 5 5 5 5 5 5 5
2 2 2 3 3 4 4 4 4 5 5 5 5 6 7 8 7 6 7 8 7 8 10 13 9 8 8 9 10 6 6 5 6 5 5 5 5 5 5 5 5 5 5 4
1 2 3 3 3 4 4 4 4 5 5 5 6 6 7 7 7 7 6 6 8 13 10 7 7 10 12 10 6 5 5 6 5 5 5 5 5 5 5 5 5 5 5 4
2 2 2 3 3 4 4 4 4 4 5 5 6 6 6 6 5 6 7 6 7 12 10 7 11 15 15 7 5 5 6 6 6 5 5 5 5 5 5 5 5 5 4 4
1 2 2 2 2 3 4 5 5 4 5 5 5 5 5 5 5 4 6 11 14 14 8 11 15 15 13 6 5 5 5 6 6 5 5 5 5 5 5 5 5 5 4 5
1 1 1 2 2 3 4 5 5 5 5 5 5 5 4 4 5 6 6 8 12 12 8 11 15 14 9 5 5 5 5 5 5 5 5 5 5 5 5 5 4 4 4 4
1 1 2 2 2 3 3 3 4 4 5 5 5 5 5 4 5 5 6 7 9 11 8 7 8 9 6 6 6 6 6 6 7 6 5 5 5 5 5 5 5 5 5 5
1 1 2 2 2 2 3 3 4 4 5 5 6 6 6 5 5 6 6 6 7 7 7 6 6 6 6 6 6 6 6 5 5 5 5 5 5 5 5 5 5 5 5 5
Wind_Direction
256 273 265 256 262 241 222 220 232 258 262 281 290 293 302 317 327 334 337 341 342 339 335 334 335 336 336 332 332 333 332 330 327 323 319 318 318 319 315 310 305 295 287 290
287 291 293 278 269 251 243 242 248 269 277 281 298 307 318 326 328 326 329 331 333 334 333 333 332 332 332 331 330 330 328 324 324 325 324 321 318 318 316 309 306 303 295 291
281 321 333 282 255 222 223 230 226 249 262 301 314 314 311 314 316 313 318 323 327 326 325 324 324 325 325 324 325 325 323 321 322 324 323 320 318 318 316 309 308 307 299 292
295 357 266 253 233 187 221 254 241 245 265 279 282 293 290 289 293 306 317 321 321 321 322 321 321 323 322 323 326 325 323 322 320 322 320 320 318 315 313 308 305 300 298 291
197 274 279 289 256 172 222 280 241 231 265 290 310 317 300 301 310 303 306 309 311 313 314 318 321 323 324 326 327 327 325 322 318 318 316 317 317 315 313 309 305 300 298 296
166 233 258 261 248 144 102 288 264 213 259 290 347 324 297 319 323 317 316 317 316 316 317 320 320 323 325 324 326 325 321 317 314 315 312 312 311 312 314 311 304 304 301 296
204 234 265 258 250 122 186 267 278 223 253 257 241 249 284 311 313 312 313 316 318 318 318 317 320 325 324 322 321 318 317 317 317 315 311 306 306 309 312 310 309 306 302 300
183 219 258 223 140 184 226 274 267 257 258 262 270 284 299 306 310 315 317 319 320 320 317 318 323 325 321 318 316 317 318 318 316 314 311 310 309 309 312 310 310 307 306 306
198 219 248 189 200 225 196 247 260 258 270 273 282 288 300 304 306 309 311 314 317 316 315 319 323 323 317 315 318 319 318 317 316 314 311 310 309 308 310 308 306 309 306 303
249 261 250 242 242 250 232 237 254 260 269 266 275 287 295 301 306 309 312 313 316 318 317 318 321 320 313 314 318 318 317 315 314 314 313 312 307 304 304 303 303 304 306 301
253 273 298 269 230 236 253 254 270 279 270 268 275 286 291 297 301 305 310 313 314 314 312 313 317 317 317 319 321 318 315 313 314 313 309 308 308 302 298 290 295 299 300 298
230 226 212 251 246 230 245 264 272 278 287 285 275 282 291 293 297 303 307 312 314 314 313 314 316 316 318 320 320 318 316 316 314 313 311 310 309 312 312 310 312 312 313 309
226 229 220 256 268 237 244 264 272 268 273 287 291 286 292 295 301 304 308 312 312 311 311 313 315 316 318 319 319 315 311 310 309 312 312 312 311 311 314 319 320 320 321 317
225 208 263 253 255 264 259 274 284 287 286 285 292 300 301 300 303 307 308 309 309 309 311 313 314 315 317 318 318 315 311 308 309 306 307 307 308 308 306 308 315 318 320 320
238 220 235 267 287 290 288 294 300 301 304 307 305 305 305 305 305 305 306 310 313 314 315 316 317 317 321 321 319 317 314 312 306 304 306 308 309 310 309 306 305 311 318 321
260 253 245 262 274 282 288 285 285 292 300 302 304 303 301 297 298 302 306 313 315 316 317 317 316 317 322 324 323 320 316 317 319 314 313 314 316 316 315 314 313 314 316 319
200 251 254 272 278 281 273 265 266 279 289 291 293 298 303 305 307 308 311 311 306 302 306 311 313 317 321 322 321 319 318 320 324 320 314 313 313 312 312 314 316 318 317 320
214 230 235 244 261 274 283 282 279 282 281 283 292 298 301 303 303 304 307 311 312 311 311 312 314 319 321 322 321 319 318 319 322 321 320 319 317 317 319 318 319 320 321 325
226 240 255 263 261 264 275 283 286 285 286 289 292 292 292 292 294 299 305 311 314 316 319 319 323 327 322 322 325 319 319 319 320 321 321 321 324 323 323 323 322 321 323 326
266 269 275 285 288 274 279 286 289 291 290 290 291 294 298 298 299 303 306 302 296 296 305 314 319 319 319 319 324 320 320 319 320 321 322 321 320 321 323 322 322 321 322 323
287 297 300 301 302 297 288 288 291 292 295 292 287 289 293 298 302 303 307 307 307 309 313 319 323 319 318 321 324 324 324 324 324 323 322 320 320 320 322 323 323 322 320 321
282 289 293 300 304 306 306 301 293 293 297 297 294 294 299 304 308 306 293 288 303 317 322 315 315 318 326 328 331 332 331 328 325 323 322 322 321 321 322 324 323 321 320 321
274 282 293 297 297 300 310 310 301 296 296 297 299 300 299 299 302 305 309 309 311 317 322 315 319 324 330 338 335 331 328 326 323 321 321 320 319 319 319 321 321 321 321 320
281 294 300 307 315 318 317 315 312 307 300 297 298 297 299 305 304 289 289 309 320 322 320 319 326 330 336 342 330 326 323 321 319 317 317 317 318 319 318 318 318 318 319 319
286 291 301 315 314 306 304 311 315 314 313 312 310 307 303 293 293 305 308 311 319 324 321 322 327 331 336 326 323 319 316 313 313 315 316 318 318 317 316 314 313 313 315 313
284 285 282 278 280 292 304 312 314 315 319 318 316 314 313 310 303 304 308 312 315 322 323 318 319 323 323 320 318 317 316 316 321 324 320 316 315 315 314 314 313 311 309 307
326 317 315 316 316 313 310 308 307 310 312 310 310 313 317 318 318 318 317 317 318 319 317 317 318 318 317 317 317 316 314 313 312 312 313 312 311 310 309 307 306 305 304 302
Height
1542 1540 1539 1538 1537 1537 1538 1538 1539 1533 1533 1528 1527 1526 1523 1521 1519 1516 1513 1510 1507 1504 1500 1497 1493 1489 1486 1483 1479 1476 1473 1470 1467 1464 1462 1460 1458 1456 1455 1454 1453 1453 1452 1452
1543 1539 1539 1537 1534 1534 1534 1534 1534 1531 1530 1527 1526 1524 1522 1520 1518 1515 1513 1510 1506 1503 1499 1495 1491 1487 1483 1480 1476 1474 1470 1467 1464 1461 1459 1457 1455 1453 1451 1450 1449 1449 1448 1448
1545 1542 1539 1537 1533 1532 1533 1532 1533 1532 1530 1526 1525 1523 1521 1519 1517 1515 1512 1509 1505 1501 1497 1493 1489 1485 1481 1477 1474 1471 1467 1464 1461 1459 1456 1453 1451 1450 1448 1447 1446 1445 1444 1444
1547 1547 1547 1535 1531 1530 1531 1531 1530 1528 1527 1526 1524 1522 1520 1518 1516 1513 1511 1507 1503 1499 1495 1491 1487 1483 1478 1474 1470 1467 1464 1461 1458 1456 1453 1451 1448 1446 1445 1443 1442 1441 1440 1440
1550 1550 1541 1533 1530 1531 1532 1530 1527 1526 1525 1524 1522 1520 1517 1516 1515 1512 1509 1505 1501 1497 1493 1488 1484 1479 1474 1470 1467 1464 1460 1457 1455 1453 1450 1447 1445 1443 1441 1440 1438 1438 1437 1436
1550 1548 1541 1532 1530 1529 1532 1531 1525 1524 1523 1523 1522 1522 1517 1514 1512 1509 1506 1502 1498 1494 1490 1485 1481 1476 1472 1467 1464 1460 1457 1454 1451 1449 1446 1444 1441 1439 1438 1436 1435 1434 1433 1433
1549 1548 1537 1530 1528 1529 1535 1529 1524 1522 1522 1521 1521 1520 1516 1512 1509 1506 1503 1499 1495 1491 1486 1482 1478 1473 1469 1465 1461 1458 1454 1451 1448 1445 1443 1440 1438 1436 1434 1433 1431 1430 1429 1429
1547 1547 1538 1527 1527 1529 1527 1523 1522 1521 1520 1519 1518 1515 1513 1510 1507 1503 1499 1496 1492 1487 1483 1479 1475 1471 1466 1462 1458 1454 1451 1447 1444 1441 1439 1437 1434 1432 1431 1429 1428 1427 1426 1425
1536 1531 1525 1523 1522 1522 1522 1521 1520 1519 1518 1517 1514 1512 1510 1507 1504 1500 1497 1493 1489 1485 1480 1476 1473 1468 1463 1459 1455 1451 1447 1443 1440 1437 1435 1433 1431 1429 1427 1426 1424 1423 1422 1422
1530 1523 1521 1521 1520 1520 1520 1519 1518 1517 1516 1514 1512 1509 1507 1504 1501 1498 1494 1490 1486 1482 1477 1473 1470 1466 1461 1457 1452 1448 1443 1440 1436 1434 1431 1429 1427 1426 1424 1423 1421 1420 1420 1419
1526 1521 1519 1517 1517 1517 1517 1516 1515 1514 1513 1511 1509 1506 1504 1501 1498 1495 1491 1487 1483 1479 1475 1470 1467 1462 1458 1454 1449 1445 1441 1437 1434 1431 1429 1426 1424 1423 1421 1420 1420 1419 1418 1417
1520 1516 1517 1515 1515 1515 1514 1513 1512 1511 1509 1508 1506 1504 1501 1498 1495 1492 1488 1484 1480 1476 1472 1468 1464 1459 1455 1451 1447 1442 1438 1434 1431 1428 1426 1424 1421 1419 1418 1418 1417 1416 1416 1415
1513 1513 1513 1513 1512 1512 1511 1510 1509 1508 1506 1504 1502 1501 1498 1495 1492 1489 1485 1482 1478 1473 1469 1465 1461 1457 1453 1449 1444 1440 1437 1433 1429 1426 1424 1421 1419 1417 1415 1414 1414 1413 1413 1412
1511 1511 1510 1510 1510 1509 1509 1507 1506 1505 1503 1501 1499 1497 1495 1492 1489 1486 1482 1479 1475 1471 1466 1462 1458 1454 1450 1446 1442 1438 1434 1431 1427 1424 1422 1419 1417 1415 1414 1412 1410 1409 1410 1409
1508 1508 1508 1507 1507 1506 1506 1504 1503 1501 1500 1498 1496 1494 1491 1489 1486 1483 1480 1476 1472 1468 1464 1459 1455 1451 1447 1443 1439 1435 1431 1428 1425 1422 1420 1417 1415 1413 1412 1410 1409 1408 1407 1407
1506 1506 1505 1505 1504 1504 1503 1501 1500 1498 1497 1495 1493 1491 1488 1486 1483 1480 1477 1473 1469 1465 1461 1457 1453 1449 1445 1441 1436 1433 1429 1426 1423 1421 1418 1415 1413 1411 1410 1408 1407 1406 1405 1405
1503 1503 1503 1502 1501 1501 1500 1499 1498 1496 1494 1492 1490 1488 1485 1483 1480 1476 1473 1470 1466 1462 1459 1454 1450 1446 1443 1439 1435 1431 1427 1424 1422 1419 1416 1414 1412 1410 1409 1407 1406 1405 1404 1404
1501 1501 1501 1500 1499 1498 1497 1496 1495 1493 1491 1489 1487 1485 1482 1479 1476 1473 1470 1466 1463 1460 1456 1452 1448 1444 1440 1436 1433 1429 1426 1423 1420 1418 1415 1413 1411 1409 1408 1406 1405 1403 1402 1402
1499 1499 1498 1498 1497 1496 1494 1493 1492 1490 1488 1486 1484 1481 1479 1476 1474 1470 1467 1463 1460 1456 1452 1449 1445 1442 1438 1434 1431 1427 1424 1421 1419 1416 1414 1412 1410 1408 1407 1405 1404 1402 1401 1400
1497 1497 1496 1495 1494 1493 1492 1490 1488 1487 1485 1483 1480 1478 1476 1473 1470 1467 1464 1461 1458 1454 1450 1446 1443 1439 1436 1433 1429 1426 1423 1420 1417 1415 1413 1411 1409 1407 1405 1404 1402 1401 1400 1399
1495 1494 1493 1492 1491 1490 1489 1487 1485 1483 1482 1479 1477 1475 1472 1470 1467 1464 1460 1457 1455 1451 1448 1444 1441 1437 1434 1431 1428 1425 1422 1419 1416 1414 1411 1409 1407 1406 1404 1402 1401 1400 1399 1398
1493 1492 1491 1490 1489 1487 1486 1484 1483 1480 1478 1476 1474 1471 1469 1466 1464 1461 1458 1455 1452 1448 1445 1442 1438 1435 1432 1430 1426 1423 1421 1418 1415 1412 1410 1408 1406 1404 1402 1401 1400 1398 1397 1396
1491 1490 1489 1488 1486 1485 1483 1482 1480 1478 1475 1473 1471 1468 1466 1463 1461 1458 1455 1452 1449 1446 1443 1439 1436 1434 1431 1427 1424 1421 1418 1416 1413 1410 1408 1406 1404 1402 1401 1399 1398 1397 1396 1394
1489 1488 1486 1485 1484 1482 1480 1479 1477 1475 1473 1470 1468 1466 1463 1460 1458 1456 1453 1449 1446 1443 1440 1437 1434 1431 1428 1425 1422 1419 1416 1414 1411 1409 1407 1405 1403 1401 1399 1398 1396 1395 1394 1393
1486 1485 1484 1483 1481 1479 1478 1476 1474 1472 1470 1468 1466 1463 1461 1458 1455 1452 1450 1447 1444 1440 1437 1434 1431 1428 1425 1423 1420 1417 1414 1412 1410 1407 1405 1403 1401 1399 1397 1396 1394 1393 1392 1391
1484 1482 1481 1480 1479 1477 1475 1473 1471 1469 1467 1465 1462 1460 1458 1456 1453 1450 1447 1444 1441 1438 1435 1431 1429 1426 1423 1420 1417 1415 1412 1410 1408 1406 1403 1401 1400 1398 1396 1394 1393 1392 1390 1389
1481 1480 1479 1478 1476 1475 1473 1471 1469 1467 1465 1462 1460 1458 1455 1453 1450 1447 1444 1441 1438 1435 1432 1429 1426 1423 1420 1418 1415 1413 1410 1408 1406 1404 1402 1400 1398 1396 1395 1393 1392 1390 1389 1388